,,,PA_Meas_PMT16A,,PR_Meas_QMR101_102,,RH_Meas_QMH101,,SR_Meas_QMS101,,TA_Meas_QMH101,,GenWind,,GenWind,
date,time,status,PA,status,PR,status,RH,status,SR,status,TA,status,DirAvg,status,SpdAvg,
2014-08-19, 00:00:04,VALID,1012.08,VALID,0,INVALID,115.98,VALID,0,VALID,24.7464,VALID,224,VALID,0,
2014-08-19, 00:01:04,VALID,1012.09,VALID,0,INVALID,114.142,VALID,0,VALID,24.8049,VALID,224,VALID,0,
2014-08-19, 00:02:04,VALID,1012.13,VALID,0,INVALID,112.35,VALID,0,VALID,24.8438,VALID,224,VALID,0,
2014-08-19, 00:03:04,VALID,1012.11,VALID,0,INVALID,111.023,VALID,0,VALID,24.8633,VALID,224,VALID,0,
2014-08-19, 00:04:04,VALID,1012.07,VALID,0,VALID,104,VALID,0.112112,VALID,24.8633,VALID,147,VALID,0,
2014-08-19, 00:05:04,VALID,1012.05,VALID,0,VALID,104,VALID,0,VALID,24.8828,VALID,130,VALID,0,
2014-08-19, 00:06:04,VALID,1012.04,VALID,0,VALID,103.039,VALID,0,VALID,24.9023,VALID,127,VALID,0,
2014-08-19, 00:07:04,VALID,1012.01,VALID,0,VALID,100.683,VALID,0,VALID,24.9413,VALID,127,VALID,0,
2014-08-19, 00:08:04,VALID,1011.98,VALID,0,VALID,98.3875,VALID,0,VALID,24.9608,VALID,127,VALID,0,
2014-08-19, 00:09:04,VALID,1011.94,VALID,0,VALID,96.7784,VALID,0.112112,VALID,24.9803,VALID,127,VALID,0,
2014-08-19, 00:10:04,VALID,1011.93,VALID,0,VALID,96.1989,VALID,0,VALID,24.9589,VALID,127,VALID,0,
2014-08-19, 00:11:04,VALID,1011.91,VALID,0,VALID,95.7108,VALID,0,VALID,24.9608,VALID,127,VALID,0,
2014-08-19, 00:12:04,VALID,1011.91,VALID,0,VALID,94.9101,VALID,0,VALID,24.9608,VALID,127,VALID,0,
2014-08-19, 00:13:04,VALID,1011.91,VALID,0,VALID,94.7424,VALID,0.112112,VALID,24.9608,VALID,127,VALID,0,
2014-08-19, 00:14:04,VALID,1011.86,VALID,0,VALID,94.4526,VALID,0,VALID,24.9413,VALID,127,VALID,0,
2014-08-19, 00:15:04,VALID,1011.88,VALID,0,VALID,94.3992,VALID,0,VALID,24.9199,VALID,127,VALID,0,
2014-08-19, 00:16:04,VALID,1011.88,VALID,0,VALID,94.2391,VALID,0,VALID,24.9218,VALID,127,VALID,0,
2014-08-19, 00:17:04,VALID,1011.88,VALID,0,VALID,94.2467,VALID,0,VALID,24.9413,VALID,127,VALID,0,
2014-08-19, 00:18:04,VALID,1011.87,VALID,0,VALID,94.567,VALID,0,VALID,24.9413,VALID,127,VALID,0,
2014-08-19, 00:19:04,VALID,1011.86,VALID,0,VALID,94.8491,VALID,0,VALID,24.9218,VALID,127,VALID,0,
2014-08-19, 00:20:04,VALID,1011.87,VALID,0,VALID,95.1008,VALID,0,VALID,24.9218,VALID,127,VALID,0,
2014-08-19, 00:21:04,VALID,1011.85,VALID,0,VALID,95.1847,VALID,0,VALID,24.9023,VALID,127,VALID,0,
2014-08-19, 00:22:04,VALID,1011.87,VALID,0,VALID,95.7032,VALID,0,VALID,24.9218,VALID,127,VALID,0,
2014-08-19, 00:23:04,VALID,1011.85,VALID,0,VALID,95.6041,VALID,0,VALID,24.9413,VALID,127,VALID,0,
2014-08-19, 00:24:04,VALID,1011.82,VALID,0,VALID,95.8481,VALID,0,VALID,24.9413,VALID,127,VALID,0,
2014-08-19, 00:25:04,VALID,1011.84,VALID,0,VALID,95.6422,VALID,0,VALID,24.9413,VALID,127,VALID,0,
2014-08-19, 00:26:04,VALID,1011.8,VALID,0,VALID,95.6269,VALID,0,VALID,24.9608,VALID,127,VALID,0,
2014-08-19, 00:27:04,VALID,1011.81,VALID,0,VALID,95.1084,VALID,0,VALID,24.9413,VALID,127,VALID,0,
2014-08-19, 00:28:04,VALID,1011.8,VALID,0,VALID,94.7119,VALID,0,VALID,24.9413,VALID,127,VALID,0,
2014-08-19, 00:29:04,VALID,1011.8,VALID,0,VALID,94.7119,VALID,0,VALID,24.9413,VALID,127,VALID,0,
2014-08-19, 00:30:04,VALID,1011.81,VALID,0,VALID,94.9711,VALID,0,VALID,24.9413,VALID,127,VALID,0,
2014-08-19, 00:31:04,VALID,1011.79,VALID,0,VALID,94.8339,VALID,0,VALID,24.9413,VALID,127,VALID,0,
2014-08-19, 00:32:04,VALID,1011.79,VALID,0,VALID,94.5898,VALID,0,VALID,24.9608,VALID,127,VALID,0,
2014-08-19, 00:33:04,VALID,1011.78,VALID,0,VALID,94.9711,VALID,0,VALID,24.9608,VALID,127,VALID,0,
2014-08-19, 00:34:04,VALID,1011.79,VALID,0,VALID,95.1236,VALID,0,VALID,24.9413,VALID,127,VALID,0,
2014-08-19, 00:35:04,VALID,1011.77,VALID,0,VALID,95.4363,VALID,0,VALID,24.9413,VALID,127,VALID,0,
2014-08-19, 00:36:04,VALID,1011.75,VALID,0,VALID,95.7261,VALID,0,VALID,24.9413,VALID,127,VALID,0,
2014-08-19, 00:37:04,VALID,1011.76,VALID,0,VALID,95.7947,VALID,0,VALID,24.9218,VALID,127,VALID,0,
2014-08-19, 00:38:04,VALID,1011.78,VALID,0,VALID,95.5736,VALID,0,VALID,24.9023,VALID,127,VALID,0,
2014-08-19, 00:39:04,VALID,1011.78,VALID,0,VALID,96.0845,VALID,0,VALID,24.8828,VALID,127,VALID,0,
2014-08-19, 00:40:04,VALID,1011.79,VALID,0,VALID,96.7327,VALID,0,VALID,24.8633,VALID,127,VALID,0,
2014-08-19, 00:41:04,VALID,1011.8,VALID,0,VALID,97.1521,VALID,0,VALID,24.8244,VALID,127,VALID,0,
2014-08-19, 00:42:04,VALID,1011.81,VALID,0,VALID,97.9681,VALID,0,VALID,24.7854,VALID,127,VALID,0,
2014-08-19, 00:43:04,VALID,1011.83,VALID,0,VALID,99.2797,VALID,0,VALID,24.7464,VALID,127,VALID,0,
2014-08-19, 00:44:04,VALID,1011.82,VALID,0,VALID,100.233,VALID,0,VALID,24.7074,VALID,127,VALID,0,
2014-08-19, 00:45:04,VALID,1011.81,VALID,0,VALID,101.003,VALID,0,VALID,24.7074,VALID,127,VALID,0,
2014-08-19, 00:46:04,VALID,1011.84,VALID,0,VALID,101.728,VALID,0,VALID,24.7093,VALID,127,VALID,0,
2014-08-19, 00:47:04,VALID,1011.82,VALID,0,VALID,102.284,VALID,0,VALID,24.6489,VALID,127,VALID,0,
2014-08-19, 00:48:04,VALID,1011.79,VALID,0,VALID,103.428,VALID,0,VALID,24.5905,VALID,127,VALID,0,
2014-08-19, 00:49:04,VALID,1011.8,VALID,0,VALID,104,VALID,0,VALID,24.5905,VALID,127,VALID,0,
2014-08-19, 00:50:04,VALID,1011.8,VALID,0,VALID,104,VALID,0,VALID,24.5533,VALID,127,VALID,0,
2014-08-19, 00:51:04,VALID,1011.8,VALID,0,VALID,104,VALID,0,VALID,24.5338,VALID,127,VALID,0,
2014-08-19, 00:52:04,VALID,1011.82,VALID,0,INVALID,109.163,VALID,0,VALID,24.4735,VALID,127,VALID,0,
2014-08-19, 00:53:04,VALID,1011.84,VALID,0,INVALID,110.589,VALID,0,VALID,24.4754,VALID,127,VALID,0,
2014-08-19, 00:54:04,VALID,1011.83,VALID,0,INVALID,111.801,VALID,0,VALID,24.4345,VALID,127,VALID,0,
2014-08-19, 00:55:04,VALID,1011.83,VALID,0,INVALID,112.777,VALID,0,VALID,24.4559,VALID,127,VALID,0,
2014-08-19, 00:56:04,VALID,1011.82,VALID,0,INVALID,113.784,VALID,0,VALID,24.415,VALID,127,VALID,0,
2014-08-19, 00:57:04,VALID,1011.83,VALID,0,INVALID,114.546,VALID,0,VALID,24.3956,VALID,127,VALID,0,
2014-08-19, 00:58:04,VALID,1011.79,VALID,0,INVALID,115.034,VALID,0,VALID,24.3974,VALID,127,VALID,0,
2014-08-19, 00:59:04,VALID,1011.8,VALID,0,INVALID,115.576,VALID,0,VALID,24.3761,VALID,127,VALID,0,
2014-08-19, 01:00:04,VALID,1011.75,VALID,0,INVALID,115.98,VALID,0,VALID,24.3761,VALID,127,VALID,0,
2014-08-19, 01:01:04,VALID,1011.73,VALID,0,INVALID,116.178,VALID,0,VALID,24.3761,VALID,127,VALID,0,
2014-08-19, 01:02:04,VALID,1011.75,VALID,0,INVALID,116.422,VALID,0,VALID,24.3566,VALID,127,VALID,0,
2014-08-19, 01:03:04,VALID,1011.7,VALID,0,INVALID,116.644,VALID,0,VALID,24.3371,VALID,127,VALID,0,
2014-08-19, 01:04:04,VALID,1011.69,VALID,0,INVALID,116.811,VALID,0,VALID,24.3584,VALID,127,VALID,0,
2014-08-19, 01:05:04,VALID,1011.69,VALID,0,INVALID,116.956,VALID,0,VALID,24.3371,VALID,127,VALID,0,
2014-08-19, 01:06:04,VALID,1011.7,VALID,0,INVALID,117.147,VALID,0,VALID,24.3371,VALID,127,VALID,0,
2014-08-19, 01:07:04,VALID,1011.73,VALID,0,INVALID,117.269,VALID,0,VALID,24.3371,VALID,127,VALID,0,
2014-08-19, 01:08:04,VALID,1011.7,VALID,0,INVALID,117.459,VALID,0,VALID,24.3371,VALID,127,VALID,0,
2014-08-19, 01:09:04,VALID,1011.7,VALID,0,INVALID,117.688,VALID,0,VALID,24.3371,VALID,127,VALID,0,
2014-08-19, 01:10:04,VALID,1011.68,VALID,0,INVALID,117.787,VALID,0,VALID,24.3584,VALID,127,VALID,0,
2014-08-19, 01:11:04,VALID,1011.67,VALID,0,INVALID,117.803,VALID,0,VALID,24.3371,VALID,127,VALID,0,
2014-08-19, 01:12:04,VALID,1011.66,VALID,0,INVALID,117.795,VALID,0,VALID,24.3371,VALID,127,VALID,0,
2014-08-19, 01:13:04,VALID,1011.65,VALID,0,INVALID,117.772,VALID,0,VALID,24.2981,VALID,127,VALID,0,
2014-08-19, 01:14:04,VALID,1011.59,VALID,0,INVALID,117.81,VALID,0,VALID,24.3389,VALID,127,VALID,0,
2014-08-19, 01:15:04,VALID,1011.59,VALID,0,INVALID,117.864,VALID,0,VALID,24.2981,VALID,127,VALID,0,
2014-08-19, 01:16:04,VALID,1011.57,VALID,0,INVALID,117.925,VALID,0,VALID,24.2786,VALID,127,VALID,0,
2014-08-19, 01:17:04,VALID,1011.58,VALID,0,INVALID,118.031,VALID,0,VALID,24.2786,VALID,127,VALID,0,
2014-08-19, 01:18:04,VALID,1011.58,VALID,0,INVALID,118.1,VALID,0,VALID,24.2805,VALID,127,VALID,0,
2014-08-19, 01:19:04,VALID,1011.58,VALID,0,INVALID,118.222,VALID,0,VALID,24.2396,VALID,127,VALID,0,
2014-08-19, 01:20:04,VALID,1011.57,VALID,0,INVALID,118.336,VALID,0,VALID,24.2415,VALID,127,VALID,0,
2014-08-19, 01:21:04,VALID,1011.56,VALID,0,INVALID,118.436,VALID,0,VALID,24.2202,VALID,127,VALID,0,
2014-08-19, 01:22:04,VALID,1011.57,VALID,0,INVALID,118.619,VALID,0,VALID,24.2007,VALID,127,VALID,0,
2014-08-19, 01:23:04,VALID,1011.57,VALID,0,INVALID,118.702,VALID,0,VALID,24.222,VALID,127,VALID,0,
2014-08-19, 01:24:04,VALID,1011.54,VALID,0,INVALID,118.809,VALID,0,VALID,24.222,VALID,127,VALID,0,
2014-08-19, 01:25:04,VALID,1011.55,VALID,0,INVALID,118.893,VALID,0,VALID,24.1793,VALID,127,VALID,0,
2014-08-19, 01:26:04,VALID,1011.53,VALID,0,INVALID,118.969,VALID,0,VALID,24.1812,VALID,127,VALID,0,
2014-08-19, 01:27:04,VALID,1011.52,VALID,0,INVALID,119.061,VALID,0,VALID,24.183,VALID,127,VALID,0,
2014-08-19, 01:28:04,VALID,1011.52,VALID,0,INVALID,119.213,VALID,0,VALID,24.183,VALID,127,VALID,0,
2014-08-19, 01:29:04,VALID,1011.53,VALID,0,INVALID,119.313,VALID,0,VALID,24.1635,VALID,127,VALID,0,
2014-08-19, 01:30:04,VALID,1011.55,VALID,0,INVALID,119.511,VALID,0,VALID,24.1635,VALID,127,VALID,0,
2014-08-19, 01:31:04,VALID,1011.57,VALID,0,INVALID,119.64,VALID,0,VALID,24.1227,VALID,127,VALID,0,
2014-08-19, 01:32:04,VALID,1011.57,VALID,0,INVALID,119.701,VALID,0,VALID,24.1032,VALID,127,VALID,0,
2014-08-19, 01:33:04,VALID,1011.57,VALID,0,INVALID,119.808,VALID,0,VALID,24.1032,VALID,127,VALID,0,
2014-08-19, 01:34:04,VALID,1011.55,VALID,0,INVALID,119.869,VALID,0,VALID,24.0837,VALID,127,VALID,0,
2014-08-19, 01:35:04,VALID,1011.53,VALID,0,INVALID,119.976,VALID,0,VALID,24.1051,VALID,127,VALID,0,
2014-08-19, 01:36:04,VALID,1011.52,VALID,0,INVALID,120.113,VALID,0,VALID,24.0837,VALID,127,VALID,0,
2014-08-19, 01:37:04,VALID,1011.49,VALID,0,INVALID,120.159,VALID,0,VALID,24.0837,VALID,127,VALID,0,
2014-08-19, 01:38:04,VALID,1011.49,VALID,0,INVALID,120.38,VALID,0,VALID,24.0837,VALID,127,VALID,0,
2014-08-19, 01:39:04,VALID,1011.47,VALID,0,INVALID,120.495,VALID,0,VALID,24.0643,VALID,127,VALID,0,
2014-08-19, 01:40:04,VALID,1011.48,VALID,0,INVALID,120.556,VALID,0,VALID,24.0643,VALID,127,VALID,0,
2014-08-19, 01:41:04,VALID,1011.48,VALID,0,INVALID,120.655,VALID,0,VALID,24.0448,VALID,127,VALID,0,
2014-08-19, 01:42:04,VALID,1011.49,VALID,0,INVALID,120.761,VALID,0,VALID,24.0448,VALID,127,VALID,0,
2014-08-19, 01:43:04,VALID,1011.48,VALID,0,INVALID,120.807,VALID,0,VALID,24.0058,VALID,127,VALID,0,
2014-08-19, 01:44:04,VALID,1011.49,VALID,0,INVALID,120.845,VALID,0,VALID,24.0058,VALID,127,VALID,0,
2014-08-19, 01:45:04,VALID,1011.47,VALID,0,INVALID,120.883,VALID,0,VALID,24.0058,VALID,127,VALID,0,
2014-08-19, 01:46:04,VALID,1011.45,VALID,0,INVALID,120.96,VALID,0,VALID,23.9863,VALID,127,VALID,0,
2014-08-19, 01:47:04,VALID,1011.47,VALID,0,INVALID,120.99,VALID,0,VALID,23.9863,VALID,127,VALID,0,
2014-08-19, 01:48:04,VALID,1011.45,VALID,0,INVALID,121.059,VALID,0.112112,VALID,23.965,VALID,127,VALID,0,
2014-08-19, 01:49:04,VALID,1011.45,VALID,0,INVALID,121.112,VALID,0,VALID,23.9863,VALID,127,VALID,0,
2014-08-19, 01:50:04,VALID,1011.43,VALID,0,INVALID,121.15,VALID,0,VALID,23.9668,VALID,127,VALID,0,
2014-08-19, 01:51:04,VALID,1011.41,VALID,0,INVALID,121.249,VALID,0,VALID,23.9455,VALID,127,VALID,0,
2014-08-19, 01:52:04,VALID,1011.43,VALID,0,INVALID,121.265,VALID,0,VALID,23.9668,VALID,127,VALID,0,
2014-08-19, 01:53:04,VALID,1011.45,VALID,0,INVALID,121.295,VALID,0,VALID,23.9473,VALID,127,VALID,0,
2014-08-19, 01:54:04,VALID,1011.44,VALID,0,INVALID,121.303,VALID,0.112112,VALID,23.9473,VALID,127,VALID,0,
2014-08-19, 01:55:04,VALID,1011.43,VALID,0,INVALID,121.333,VALID,0,VALID,23.926,VALID,127,VALID,0,
2014-08-19, 01:56:04,VALID,1011.43,VALID,0,INVALID,121.371,VALID,0,VALID,23.9278,VALID,127,VALID,0,
2014-08-19, 01:57:04,VALID,1011.44,VALID,0,INVALID,121.402,VALID,0,VALID,23.9278,VALID,127,VALID,0,
2014-08-19, 01:58:04,VALID,1011.44,VALID,0,INVALID,121.402,VALID,0,VALID,23.9278,VALID,127,VALID,0,
2014-08-19, 01:59:04,VALID,1011.46,VALID,0,INVALID,121.44,VALID,0,VALID,23.9278,VALID,127,VALID,0,
2014-08-19, 02:00:04,VALID,1011.4,VALID,0,INVALID,121.463,VALID,0,VALID,23.9473,VALID,127,VALID,0,
2014-08-19, 02:01:04,VALID,1011.39,VALID,0,INVALID,121.486,VALID,0,VALID,23.9473,VALID,127,VALID,0,
2014-08-19, 02:02:04,VALID,1011.38,VALID,0,INVALID,121.516,VALID,0,VALID,23.926,VALID,127,VALID,0,
2014-08-19, 02:03:04,VALID,1011.39,VALID,0,INVALID,121.57,VALID,0,VALID,23.9473,VALID,127,VALID,0,
2014-08-19, 02:04:04,VALID,1011.35,VALID,0,INVALID,121.6,VALID,0,VALID,23.9278,VALID,127,VALID,0,
2014-08-19, 02:05:04,VALID,1011.35,VALID,0,INVALID,121.654,VALID,0,VALID,23.9084,VALID,127,VALID,0,
2014-08-19, 02:06:04,VALID,1011.35,VALID,0,INVALID,121.692,VALID,0,VALID,23.9084,VALID,127,VALID,0,
2014-08-19, 02:07:04,VALID,1011.35,VALID,0,INVALID,121.715,VALID,0,VALID,23.8889,VALID,127,VALID,0,
2014-08-19, 02:08:04,VALID,1011.33,VALID,0,INVALID,121.753,VALID,0,VALID,23.8889,VALID,127,VALID,0,
2014-08-19, 02:09:04,VALID,1011.32,VALID,0,INVALID,121.768,VALID,0,VALID,23.8889,VALID,127,VALID,0,
2014-08-19, 02:10:04,VALID,1011.3,VALID,0,INVALID,121.821,VALID,0,VALID,23.8889,VALID,127,VALID,0,
2014-08-19, 02:11:04,VALID,1011.27,VALID,0,INVALID,121.829,VALID,0,VALID,23.8676,VALID,127,VALID,0,
2014-08-19, 02:12:04,VALID,1011.3,VALID,0,INVALID,121.829,VALID,0,VALID,23.8694,VALID,127,VALID,0,
2014-08-19, 02:13:04,VALID,1011.27,VALID,0,INVALID,121.86,VALID,0,VALID,23.8676,VALID,127,VALID,0,
2014-08-19, 02:14:04,VALID,1011.25,VALID,0,INVALID,121.86,VALID,0.112112,VALID,23.8889,VALID,127,VALID,0,
2014-08-19, 02:15:04,VALID,1011.26,VALID,0,INVALID,121.852,VALID,0.112112,VALID,23.8889,VALID,127,VALID,0,
2014-08-19, 02:16:04,VALID,1011.25,VALID,0,INVALID,121.89,VALID,0,VALID,23.8481,VALID,127,VALID,0,
2014-08-19, 02:17:04,VALID,1011.28,VALID,0,INVALID,121.905,VALID,0,VALID,23.8694,VALID,127,VALID,0,
2014-08-19, 02:18:04,VALID,1011.29,VALID,0,INVALID,121.951,VALID,0,VALID,23.8499,VALID,127,VALID,0,
2014-08-19, 02:19:04,VALID,1011.28,VALID,0,INVALID,121.928,VALID,0,VALID,23.8499,VALID,127,VALID,0,
2014-08-19, 02:20:04,VALID,1011.27,VALID,0,INVALID,121.943,VALID,0,VALID,23.8499,VALID,127,VALID,0,
2014-08-19, 02:21:04,VALID,1011.29,VALID,0,INVALID,121.936,VALID,0,VALID,23.8499,VALID,127,VALID,0,
2014-08-19, 02:22:04,VALID,1011.28,VALID,0,INVALID,121.974,VALID,0,VALID,23.8499,VALID,127,VALID,0,
2014-08-19, 02:23:04,VALID,1011.26,VALID,0,INVALID,121.989,VALID,0,VALID,23.8304,VALID,127,VALID,0,
2014-08-19, 02:24:04,VALID,1011.25,VALID,0,INVALID,121.989,VALID,0,VALID,23.8304,VALID,127,VALID,0,
2014-08-19, 02:25:04,VALID,1011.24,VALID,0,INVALID,122.012,VALID,0,VALID,23.8499,VALID,127,VALID,0,
2014-08-19, 02:26:04,VALID,1011.26,VALID,0,INVALID,121.997,VALID,0,VALID,23.8304,VALID,127,VALID,0,
2014-08-19, 02:27:04,VALID,1011.26,VALID,0,INVALID,121.943,VALID,0,VALID,23.8286,VALID,127,VALID,0,
2014-08-19, 02:28:04,VALID,1011.25,VALID,0,INVALID,121.928,VALID,0,VALID,23.8694,VALID,127,VALID,0,
2014-08-19, 02:29:04,VALID,1011.23,VALID,0,INVALID,121.982,VALID,0,VALID,23.8694,VALID,127,VALID,0,
2014-08-19, 02:30:04,VALID,1011.24,VALID,0,INVALID,121.982,VALID,0,VALID,23.8694,VALID,127,VALID,0,
2014-08-19, 02:31:04,VALID,1011.2,VALID,0,INVALID,121.989,VALID,0,VALID,23.8694,VALID,127,VALID,0,
2014-08-19, 02:32:04,VALID,1011.21,VALID,0,INVALID,121.966,VALID,0,VALID,23.8889,VALID,127,VALID,0,
2014-08-19, 02:33:04,VALID,1011.21,VALID,0,INVALID,122.02,VALID,0,VALID,23.8889,VALID,127,VALID,0,
2014-08-19, 02:34:04,VALID,1011.23,VALID,0,INVALID,122.058,VALID,0,VALID,23.8676,VALID,127,VALID,0,
2014-08-19, 02:35:04,VALID,1011.19,VALID,0,INVALID,122.088,VALID,0,VALID,23.8694,VALID,127,VALID,0,
2014-08-19, 02:36:04,VALID,1011.22,VALID,0,INVALID,122.142,VALID,0.112112,VALID,23.8286,VALID,127,VALID,0,
2014-08-19, 02:37:04,VALID,1011.2,VALID,0,INVALID,122.187,VALID,0.112112,VALID,23.8286,VALID,127,VALID,0,
2014-08-19, 02:38:04,VALID,1011.18,VALID,0,INVALID,122.233,VALID,0.112112,VALID,23.8304,VALID,127,VALID,0,
2014-08-19, 02:39:04,VALID,1011.18,VALID,0,INVALID,122.241,VALID,0.112112,VALID,23.8286,VALID,127,VALID,0,
2014-08-19, 02:40:04,VALID,1011.2,VALID,0,INVALID,122.248,VALID,0,VALID,23.8091,VALID,127,VALID,0,
2014-08-19, 02:41:04,VALID,1011.2,VALID,0,INVALID,122.256,VALID,0,VALID,23.8304,VALID,127,VALID,0,
2014-08-19, 02:42:04,VALID,1011.21,VALID,0,INVALID,122.248,VALID,0,VALID,23.8304,VALID,127,VALID,0,
2014-08-19, 02:43:04,VALID,1011.23,VALID,0,INVALID,122.241,VALID,0.112112,VALID,23.8091,VALID,127,VALID,0,
2014-08-19, 02:44:04,VALID,1011.24,VALID,0,INVALID,122.271,VALID,0.112112,VALID,23.8091,VALID,127,VALID,0,
2014-08-19, 02:45:04,VALID,1011.24,VALID,0,INVALID,122.302,VALID,0.112112,VALID,23.8109,VALID,127,VALID,0,
2014-08-19, 02:46:04,VALID,1011.27,VALID,0,INVALID,122.34,VALID,0,VALID,23.7914,VALID,127,VALID,0,
2014-08-19, 02:47:04,VALID,1011.27,VALID,0,INVALID,122.34,VALID,0,VALID,23.7914,VALID,127,VALID,0,
2014-08-19, 02:48:04,VALID,1011.29,VALID,0,INVALID,122.424,VALID,0,VALID,23.7914,VALID,127,VALID,0,
2014-08-19, 02:49:04,VALID,1011.31,VALID,0,INVALID,122.424,VALID,0,VALID,23.772,VALID,127,VALID,0,
2014-08-19, 02:50:04,VALID,1011.3,VALID,0,INVALID,122.409,VALID,0,VALID,23.7525,VALID,127,VALID,0,
2014-08-19, 02:51:04,VALID,1011.36,VALID,0,INVALID,122.409,VALID,0.112112,VALID,23.772,VALID,127,VALID,0,
2014-08-19, 02:52:04,VALID,1011.34,VALID,0,INVALID,122.431,VALID,0,VALID,23.7525,VALID,127,VALID,0,
2014-08-19, 02:53:04,VALID,1011.34,VALID,0,INVALID,122.424,VALID,0,VALID,23.733,VALID,127,VALID,0,
2014-08-19, 02:54:04,VALID,1011.35,VALID,0,INVALID,122.424,VALID,0,VALID,23.733,VALID,127,VALID,0,
2014-08-19, 02:55:04,VALID,1011.35,VALID,0,INVALID,122.424,VALID,0,VALID,23.7135,VALID,127,VALID,0,
2014-08-19, 02:56:04,VALID,1011.34,VALID,0,INVALID,122.409,VALID,0,VALID,23.733,VALID,127,VALID,0,
2014-08-19, 02:57:04,VALID,1011.33,VALID,0,INVALID,122.401,VALID,0,VALID,23.733,VALID,127,VALID,0,
2014-08-19, 02:58:04,VALID,1011.33,VALID,0,INVALID,122.325,VALID,0,VALID,23.733,VALID,127,VALID,0,
2014-08-19, 02:59:04,VALID,1011.36,VALID,0,INVALID,122.332,VALID,0,VALID,23.772,VALID,127,VALID,0,
2014-08-19, 03:00:04,VALID,1011.35,VALID,0,INVALID,122.309,VALID,0.112112,VALID,23.7525,VALID,127,VALID,0,
2014-08-19, 03:01:04,VALID,1011.38,VALID,0,INVALID,122.309,VALID,0,VALID,23.7525,VALID,127,VALID,0,
2014-08-19, 03:02:04,VALID,1011.37,VALID,0,INVALID,122.309,VALID,0,VALID,23.7525,VALID,127,VALID,0,
2014-08-19, 03:03:04,VALID,1011.41,VALID,0,INVALID,122.241,VALID,0,VALID,23.772,VALID,127,VALID,0,
2014-08-19, 03:04:04,VALID,1011.41,VALID,0,INVALID,122.218,VALID,0,VALID,23.7914,VALID,127,VALID,0,
2014-08-19, 03:05:04,VALID,1011.43,VALID,0,INVALID,122.241,VALID,0,VALID,23.7701,VALID,127,VALID,0,
2014-08-19, 03:06:04,VALID,1011.43,VALID,0,INVALID,122.325,VALID,0.112112,VALID,23.7312,VALID,127,VALID,0,
2014-08-19, 03:07:04,VALID,1011.41,VALID,0,INVALID,122.401,VALID,0,VALID,23.733,VALID,127,VALID,0,
2014-08-19, 03:08:04,VALID,1011.46,VALID,0,INVALID,122.462,VALID,0,VALID,23.7135,VALID,127,VALID,0,
2014-08-19, 03:09:04,VALID,1011.42,VALID,0,INVALID,122.5,VALID,0,VALID,23.7135,VALID,127,VALID,0,
2014-08-19, 03:10:04,VALID,1011.44,VALID,0,INVALID,122.477,VALID,0,VALID,23.694,VALID,127,VALID,0,
2014-08-19, 03:11:04,VALID,1011.42,VALID,0,INVALID,122.523,VALID,0.112112,VALID,23.694,VALID,127,VALID,0,
2014-08-19, 03:12:04,VALID,1011.44,VALID,0,INVALID,122.531,VALID,0,VALID,23.6745,VALID,127,VALID,0,
2014-08-19, 03:13:04,VALID,1011.42,VALID,0,INVALID,122.47,VALID,0,VALID,23.6745,VALID,127,VALID,0,
2014-08-19, 03:14:04,VALID,1011.44,VALID,0,INVALID,122.416,VALID,0,VALID,23.694,VALID,127,VALID,0,
2014-08-19, 03:15:04,VALID,1011.48,VALID,0,INVALID,122.37,VALID,0,VALID,23.7135,VALID,127,VALID,0,
2014-08-19, 03:16:04,VALID,1011.48,VALID,0,INVALID,122.378,VALID,0,VALID,23.694,VALID,127,VALID,0,
2014-08-19, 03:17:04,VALID,1011.48,VALID,0,INVALID,122.431,VALID,0.112112,VALID,23.694,VALID,127,VALID,0,
2014-08-19, 03:18:04,VALID,1011.47,VALID,0,INVALID,122.47,VALID,0,VALID,23.6763,VALID,127,VALID,0,
2014-08-19, 03:19:04,VALID,1011.49,VALID,0,INVALID,122.538,VALID,0,VALID,23.6356,VALID,127,VALID,0,
2014-08-19, 03:20:04,VALID,1011.48,VALID,0,INVALID,122.531,VALID,0,VALID,23.6143,VALID,127,VALID,0,
2014-08-19, 03:21:04,VALID,1011.48,VALID,0,INVALID,122.47,VALID,0,VALID,23.655,VALID,127,VALID,0,
2014-08-19, 03:22:04,VALID,1011.49,VALID,0,INVALID,122.447,VALID,0.112112,VALID,23.6356,VALID,127,VALID,0,
2014-08-19, 03:23:04,VALID,1011.45,VALID,0,INVALID,122.47,VALID,0.112112,VALID,23.6356,VALID,127,VALID,0,
2014-08-19, 03:24:04,VALID,1011.47,VALID,0,INVALID,122.508,VALID,0,VALID,23.6161,VALID,127,VALID,0,
2014-08-19, 03:25:04,VALID,1011.45,VALID,0,INVALID,122.485,VALID,0,VALID,23.6568,VALID,127,VALID,0,
2014-08-19, 03:26:04,VALID,1011.45,VALID,0,INVALID,122.424,VALID,0,VALID,23.655,VALID,127,VALID,0,
2014-08-19, 03:27:04,VALID,1011.43,VALID,0,INVALID,122.386,VALID,0,VALID,23.6745,VALID,127,VALID,0,
2014-08-19, 03:28:04,VALID,1011.46,VALID,0,INVALID,122.37,VALID,0,VALID,23.6745,VALID,127,VALID,0,
2014-08-19, 03:29:04,VALID,1011.45,VALID,0,INVALID,122.302,VALID,0,VALID,23.694,VALID,127,VALID,0,
2014-08-19, 03:30:04,VALID,1011.46,VALID,0,INVALID,122.294,VALID,0.112112,VALID,23.6745,VALID,127,VALID,0,
2014-08-19, 03:31:04,VALID,1011.47,VALID,0,INVALID,122.363,VALID,0,VALID,23.6745,VALID,127,VALID,0,
2014-08-19, 03:32:04,VALID,1011.45,VALID,0,INVALID,122.34,VALID,0,VALID,23.655,VALID,127,VALID,0,
2014-08-19, 03:33:04,VALID,1011.44,VALID,0,INVALID,122.309,VALID,0,VALID,23.6532,VALID,127,VALID,0,
2014-08-19, 03:34:04,VALID,1011.45,VALID,0,INVALID,122.279,VALID,0,VALID,23.6745,VALID,127,VALID,0,
2014-08-19, 03:35:04,VALID,1011.41,VALID,0,INVALID,122.256,VALID,0.112112,VALID,23.6745,VALID,127,VALID,0,
2014-08-19, 03:36:04,VALID,1011.4,VALID,0,INVALID,122.294,VALID,0.112112,VALID,23.6745,VALID,127,VALID,0,
2014-08-19, 03:37:04,VALID,1011.43,VALID,0,INVALID,122.256,VALID,0.112112,VALID,23.694,VALID,127,VALID,0,
2014-08-19, 03:38:04,VALID,1011.39,VALID,0,INVALID,122.195,VALID,0,VALID,23.7135,VALID,127,VALID,0,
2014-08-19, 03:39:04,VALID,1011.39,VALID,0,INVALID,122.187,VALID,0.112112,VALID,23.7135,VALID,127,VALID,0,
2014-08-19, 03:40:04,VALID,1011.41,VALID,0,INVALID,122.172,VALID,0.112112,VALID,23.7135,VALID,127,VALID,0,
2014-08-19, 03:41:04,VALID,1011.4,VALID,0,INVALID,122.165,VALID,0,VALID,23.733,VALID,127,VALID,0,
2014-08-19, 03:42:04,VALID,1011.4,VALID,0,INVALID,122.096,VALID,0.112112,VALID,23.7525,VALID,127,VALID,0,
2014-08-19, 03:43:04,VALID,1011.39,VALID,0,INVALID,122.081,VALID,0.112112,VALID,23.7525,VALID,127,VALID,0,
2014-08-19, 03:44:04,VALID,1011.39,VALID,0,INVALID,122.05,VALID,0,VALID,23.772,VALID,127,VALID,0,
2014-08-19, 03:45:04,VALID,1011.4,VALID,0,INVALID,122.081,VALID,0.112112,VALID,23.7507,VALID,127,VALID,0,
2014-08-19, 03:46:04,VALID,1011.39,VALID,0,INVALID,122.096,VALID,0,VALID,23.7525,VALID,127,VALID,0,
2014-08-19, 03:47:04,VALID,1011.41,VALID,0,INVALID,122.027,VALID,0.112112,VALID,23.772,VALID,127,VALID,0,
2014-08-19, 03:48:04,VALID,1011.4,VALID,0,INVALID,122.012,VALID,0,VALID,23.7914,VALID,127,VALID,0,
2014-08-19, 03:49:04,VALID,1011.41,VALID,0,INVALID,122.027,VALID,0,VALID,23.7914,VALID,127,VALID,0,
2014-08-19, 03:50:04,VALID,1011.43,VALID,0,INVALID,122.065,VALID,0,VALID,23.7701,VALID,127,VALID,0,
2014-08-19, 03:51:04,VALID,1011.43,VALID,0,INVALID,122.111,VALID,0,VALID,23.7914,VALID,127,VALID,0,
2014-08-19, 03:52:04,VALID,1011.44,VALID,0,INVALID,122.187,VALID,0,VALID,23.772,VALID,127,VALID,0,
2014-08-19, 03:53:04,VALID,1011.47,VALID,0,INVALID,122.165,VALID,0.112112,VALID,23.7312,VALID,127,VALID,0,
2014-08-19, 03:54:04,VALID,1011.49,VALID,0,INVALID,122.195,VALID,0,VALID,23.7525,VALID,127,VALID,0,